Location: Borovka
(49.7741°N, 14.5280°E)
Time: 14:37:53
(UTC+00:00)

AO-27 - Visible Passes

Search period start: 14 March 2026 00:00
Search period end: 24 March 2026 00:00
Orbit: 782 x 795 km, 98.7° (Epoch: 14 March)

Date Brightness Start Highest point End Pass type
(mag) Time Alt. Az. Time Alt. Az. Time Alt. Az.
14 Mar 9.7 18:04:21 10° NE 18:04:53 10° NE 18:05:26 10° NE visible
14 Mar 8.0 19:43:43 48° NE 19:43:43 48° NE 19:48:12 10° N visible
14 Mar 9.7 21:24:25 23° WNW 21:24:25 23° WNW 21:27:14 10° NW visible
15 Mar 8.5 19:13:18 30° ENE 19:13:27 30° ENE 19:17:57 10° N visible
15 Mar 8.9 20:54:00 38° WNW 20:54:00 38° WNW 20:57:43 10° NNW visible
16 Mar 9.1 18:42:53 18° ENE 18:43:50 19° NE 18:47:25 10° NNE visible
16 Mar 8.0 20:23:34 62° NNW 20:23:34 62° NNW 20:27:54 10° NNW visible
16 Mar 10.4 22:04:15 12° WNW 22:04:15 12° WNW 22:05:09 10° WNW visible
17 Mar 9.6 18:12:28 10° ENE 18:14:22 12° NE 18:16:15 10° NNE visible
17 Mar 7.8 19:53:09 58° NE 19:53:09 58° NE 19:57:54 10° N visible
17 Mar 9.8 21:33:51 20° WNW 21:33:51 20° WNW 21:36:40 10° NW visible
18 Mar 8.3 19:22:44 35° ENE 19:23:01 36° ENE 19:27:43 10° N visible
18 Mar 9.0 21:03:25 35° WNW 21:03:25 35° WNW 21:07:16 10° NNW visible
19 Mar 8.9 18:52:20 21° ENE 18:53:21 22° ENE 18:57:17 10° N visible
19 Mar 8.0 20:33:01 60° WNW 20:33:01 60° WNW 20:37:33 10° NNW visible
20 Mar 9.5 18:21:54 12° ENE 18:23:50 14° NE 18:26:26 10° NNE visible
20 Mar 7.6 20:02:36 70° NE 20:02:36 70° NE 20:07:36 10° NNW visible
20 Mar 9.9 21:43:16 18° WNW 21:43:16 18° WNW 21:46:00 10° NW visible
21 Mar 8.1 19:32:11 41° ENE 19:32:35 42° ENE 19:37:27 10° N visible
21 Mar 9.1 21:12:52 31° W 21:12:52 31° W 21:16:47 10° NNW visible
22 Mar 8.8 19:01:46 24° E 19:02:54 26° ENE 19:07:07 10° N visible
22 Mar 8.2 20:42:27 54° W 20:42:27 54° W 20:47:09 10° NNW visible
23 Mar 9.4 18:31:21 13° E 18:33:20 16° NE 18:36:26 10° NNE visible
23 Mar 7.5 20:12:02 84° ENE 20:12:02 84° ENE 20:17:16 10° NNW visible
23 Mar 10.0 21:52:43 15° W 21:52:43 15° W 21:55:14 10° NW visible
